CAPE
0 0 39 75 92 17 36 20 51 58 40 36 85 66 194 826 991 1153 1254 1623 1602 1498 1378 1595 1727 1866 1916 2114 2380 2918 2744 3226 2785 2696 2186 2224 2093 1999 2532 1620 1161 1556 1593 2593
0 0 15 58 42 55 7 21 87 65 67 22 176 71 137 546 888 1084 1144 1497 1437 1500 1222 1448 1734 1713 1997 2277 2478 2832 2879 3057 3065 2557 2209 1912 2028 1750 1506 255 847 1096 1228 1396
0 0 4 92 163 51 47 54 35 40 1 14 39 59 101 351 794 1056 1248 1207 1330 1347 1135 1133 1511 1786 2109 2258 2359 2768 3054 3365 3249 2106 2352 2574 2480 2276 729 645 743 546 513 592
0 0 6 78 116 38 91 23 4 0 23 129 256 97 254 446 731 1120 1242 1239 1243 1200 1126 1230 1558 1897 2151 2231 2197 2431 2821 3168 3028 2194 2542 2578 2391 1731 610 779 912 1114 1356 1477
0 0 3 65 41 82 112 2 3 8 33 113 130 112 195 80 208 902 981 1144 1187 956 1003 1034 828 1415 1691 2355 2218 2450 2841 2847 2391 2741 3445 2729 2503 2162 1204 1331 1205 1594 2133 1604
0 0 2 3 22 65 89 9 0 42 48 71 141 113 142 9 165 437 814 1020 1041 674 627 724 587 792 1501 2112 1923 2438 3049 3250 3186 3262 2867 2812 2857 2468 2094 1602 1236 1075 764 554
0 0 0 0 24 65 14 11 105 194 103 111 130 63 87 39 23 195 673 951 794 614 597 797 726 1142 1886 2203 2087 2495 2840 2911 2662 2583 2798 3102 2963 2915 1783 1846 1155 1637 684 413
0 0 0 0 20 165 14 27 117 227 267 94 2 101 143 127 151 378 489 828 655 690 941 731 1070 2014 2240 2435 2466 2526 2682 2847 2856 2835 2739 2833 2709 1535 1426 1646 1595 1068 439 291
0 0 0 0 0 38 99 40 53 127 85 214 77 125 51 232 375 497 491 822 642 1074 846 799 1294 2045 2467 2563 2668 2540 2812 2893 3154 2764 3571 2399 1902 2087 2214 1676 1422 226 92 28
1 9 15 2 5 0 8 39 65 89 97 72 97 71 207 420 590 655 621 886 813 1322 888 959 1226 1718 2213 2532 2653 2677 2893 3259 3196 3105 2337 1895 2003 1865 985 356 248 124 88 158
0 7 89 51 0 0 8 0 20 49 26 110 103 176 171 204 349 747 754 871 942 1498 1182 1334 1443 1793 2126 2395 2568 2784 3129 3235 2625 1848 1607 1735 1099 406 174 0 0 80 173 279
0 2 179 22 5 0 19 32 26 75 53 43 89 88 35 265 340 573 713 785 1150 1664 1536 1924 2167 2354 2458 2474 2789 2848 2726 2098 1611 1716 1211 848 500 164 0 0 22 59 202 278
0 0 87 82 15 40 39 80 77 65 89 233 352 409 138 270 455 580 684 926 1394 1804 1745 2356 2555 2642 2517 2639 2709 2524 2173 1679 1712 1467 718 308 297 287 164 112 203 357 575 671
0 0 62 97 117 61 19 14 76 48 65 227 143 124 209 363 510 638 673 980 1331 1952 2203 2332 2574 2579 2476 2682 2821 2783 2528 2182 1277 1454 404 425 409 442 481 674 803 868 985 897
0 0 27 2 0 9 4 38 84 68 161 364 122 14 57 185 438 792 925 1137 1422 2253 2549 2638 2492 2600 2874 2978 3114 2940 2671 2136 1572 1277 762 917 1053 1238 1496 1564 1379 1087 1069 929
0 15 100 29 8 2 12 20 30 41 55 275 77 266 443 283 532 798 929 1328 1846 2499 2780 2605 2185 2472 3028 3040 3017 2861 2686 2250 1842 1527 1320 1503 1705 1782 1637 1583 1474 1398 1226 1178
0 0 199 179 69 11 7 0 36 141 109 78 138 529 303 431 876 818 1017 1349 1790 2751 2905 3035 2391 2494 2844 2765 2460 2361 2226 1586 1332 975 1206 1602 1735 1602 1543 1616 1512 1376 1053 830
0 3 201 305 303 267 70 52 13 76 82 53 104 72 236 1028 1311 1166 1154 1572 2063 2989 2754 2620 2065 1461 1521 1616 1722 2372 2394 1658 1268 1274 1327 1439 1473 1589 1678 1405 1219 1282 1333 1093
7 109 203 241 206 270 71 198 165 123 75 63 90 100 320 1455 2019 1828 1606 1669 2304 2886 2272 1687 1345 1599 2109 1936 2528 2266 2193 1742 1576 1363 1508 1630 1968 1964 1724 1218 1103 859 655 589
51 62 99 246 253 258 111 216 88 155 276 163 247 298 289 921 1237 2485 2210 2666 2678 2249 1722 1447 1407 1632 1840 2121 2026 1791 1813 1836 1506 1965 1715 1289 1036 842 852 415 275 386 98 18
122 141 101 182 204 117 621 351 522 354 845 1154 972 1089 1112 1494 2947 2614 2408 2198 2070 1855 1503 1529 1644 1736 1621 1640 1732 1748 998 1432 948 970 778 530 293 83 20 10 10 5 3 5
375 401 187 199 453 662 557 602 391 1615 1580 1671 1445 1449 2954 2560 2521 2357 2079 1778 1362 1283 1249 1065 1262 1333 982 1464 858 636 345 175 154 123 52 2 0 0 0 0 4 4 7 30
1127 1052 613 505 1124 1298 1030 1326 1345 1248 2026 1707 1936 2365 2241 2125 2253 2187 1973 1608 1524 1343 1042 943 807 486 326 207 210 51 13 0 0 0 0 0 0 0 0 0 0 1 19 4
746 929 247 61 703 735 928 1092 1091 1110 1365 1834 2165 2046 1662 1931 2010 1872 1711 1634 1177 768 800 737 454 123 77 93 0 0 0 0 0 0 0 0 0 0 0 0 0 0 0 0
668 1112 310 269 362 765 659 637 837 1071 1240 1775 2110 1679 1574 1534 1366 1180 1080 788 926 814 787 626 394 110 35 0 0 0 0 0 0 0 0 0 0 0 0 0 0 0 0 0
33 420 447 812 1014 985 1105 952 688 974 1209 1242 2079 1469 935 1035 1084 1327 1277 1115 983 981 916 534 252 48 0 0 0 0 0 0 0 0 0 0 0 0 0 0 0 0 0 0
CIN
-0 -0 -25 -45 -0 -18 -1 -1 -0 -5 -7 -4 -1 -1 -0 -3 -7 -0 -1 -0 -0 -0 -0 -0 -0 -0 -0 -0 -0 -0 -0 -0 -0 -0 -0 -0 -0 -0 -0 -0 -40 -9 -5 -0
-0 -0 -0 -2 -14 -9 -4 -0 -0 -2 -15 -11 -1 -3 -0 -1 -2 -0 -0 -0 -0 -0 -0 -0 -5 -4 -8 -1 -3 -0 -0 -0 -0 -0 -0 -0 -0 -0 -4 -77 -60 -13 -1 -10
-0 -0 -0 -26 -1 -4 -0 -0 -10 -1 -13 -13 -13 -1 -1 -1 -9 -4 -1 -0 -0 -0 -0 -0 -0 -0 -11 -13 -15 -12 -1 -0 -0 -1 -0 -0 -0 -5 -45 -45 -46 -72 -59 -70
-0 -0 -0 -7 -3 -0 -3 -20 -2 -0 -3 -7 -29 -9 -18 -0 -2 -17 -13 -0 -0 -0 -0 -0 -0 -1 -0 -18 -26 -34 -21 -7 -8 -29 -0 -0 -0 -0 -16 -18 -2 -25 -8 -10
-0 -0 -0 -2 -0 -1 -0 -14 -0 -23 -0 -0 -1 -0 -19 -1 -1 -2 -13 -0 -0 -0 -0 -0 -0 -1 -4 -18 -35 -39 -32 -22 -21 -6 -0 -0 -0 -0 -13 -0 -1 -0 -2 -0
-0 -0 -0 -31 -0 -0 -1 -7 -0 -2 -2 -0 -6 -0 -41 -35 -1 -0 -8 -0 -3 -0 -0 -7 -25 -19 -6 -23 -52 -42 -37 -12 -0 -0 -0 -0 -0 -0 -0 -1 -3 -0 -0 -0
-0 -0 -0 -0 -0 -0 -0 -0 -0 -0 -0 -0 -2 -6 -5 -17 -27 -22 -6 -0 -8 -3 -16 -32 -48 -23 -29 -28 -46 -41 -47 -33 -20 -5 -0 -0 -0 -0 -4 -0 -0 -4 -0 -1
-0 -0 -0 -0 -18 -0 -3 -0 -0 -0 -0 -18 -43 -0 -3 -9 -21 -26 -17 -0 -2 -18 -2 -25 -24 -22 -38 -37 -38 -25 -43 -37 -13 -0 -0 -0 -0 -0 -0 -0 -0 -0 -0 -11
-0 -0 -0 -0 -0 -0 -4 -0 -1 -2 -2 -0 -0 -0 -7 -6 -17 -24 -24 -6 -19 -1 -27 -25 -9 -10 -23 -34 -41 -36 -27 -24 -3 -1 -1 -4 -5 -0 -1 -0 -0 -41 -94 -133
-0 -0 -0 -0 -0 -0 -12 -7 -0 -0 -0 -4 -1 -0 -0 -2 -9 -18 -27 -22 -23 -1 -24 -18 -17 -18 -23 -16 -21 -19 -16 -4 -0 -0 -2 -12 -0 -0 -11 -22 -53 -110 -102 -67
-0 -0 -0 -1 -0 -0 -6 -0 -0 -3 -13 -0 -0 -32 -9 -1 -4 -18 -25 -23 -10 -5 -18 -15 -19 -24 -22 -15 -12 -6 -0 -0 -0 -8 -11 -19 -28 -53 -45 -0 -0 -109 -45 -21
-0 -0 -0 -0 -0 -0 -0 -0 -0 -0 -2 -0 -0 -58 -42 -0 -9 -1 -1 -12 -0 -0 -0 -3 -6 -7 -11 -13 -1 -0 -0 -4 -5 -4 -34 -38 -60 -85 -0 -0 -100 -89 -35 -24
-0 -0 -0 -0 -0 -0 -2 -1 -0 -0 -0 -21 -0 -14 -129 -7 -4 -4 -2 -4 -0 -0 -0 -1 -2 -1 -4 -10 -11 -4 -2 -1 -0 -24 -42 -43 -42 -24 -10 -13 -13 -4 -0 -0
-0 -0 -5 -2 -12 -0 -1 -1 -4 -0 -0 -18 -183 -36 -0 -0 -2 -7 -6 -3 -2 -0 -1 -0 -2 -8 -7 -9 -5 -0 -0 -0 -3 -7 -18 -27 -23 -8 -2 -0 -0 -0 -0 -0
-0 -0 -11 -74 -19 -2 -11 -0 -0 -0 -6 -76 -226 -33 -97 -0 -1 -9 -14 -19 -13 -0 -0 -0 -0 -0 -1 -2 -0 -0 -0 -0 -8 -10 -15 -15 -2 -0 -0 -0 -0 -0 -0 -0
-0 -43 -0 -2 -31 -21 -1 -3 -44 -0 -2 -7 -145 -19 -0 -12 -20 -17 -29 -17 -7 -0 -0 -0 -0 -1 -0 -0 -0 -0 -0 -0 -3 -7 -10 -0 -0 -0 -0 -0 -0 -0 -0 -0
-0 -0 -0 -0 -3 -32 -1 -1 -1 -2 -0 -0 -0 -1 -0 -1 -5 -6 -15 -17 -11 -0 -1 -2 -0 -0 -0 -0 -0 -0 -0 -1 -20 -27 -5 -0 -0 -0 -0 -0 -0 -0 -0 -0
-0 -0 -0 -0 -0 -0 -2 -1 -10 -0 -0 -1 -0 -4 -1 -4 -15 -29 -25 -22 -16 -1 -5 -27 -52 -41 -47 -14 -1 -0 -1 -0 -11 -8 -0 -0 -0 -0 -0 -0 -0 -0 -0 -0
-0 -0 -0 -0 -21 -0 -1 -1 -2 -0 -0 -2 -0 -0 -0 -8 -37 -42 -48 -41 -28 -5 -74 -74 -72 -16 -0 -0 -1 -2 -0 -0 -1 -0 -0 -0 -0 -0 -0 -0 -0 -0 -0 -0
-0 -0 -0 -0 -0 -0 -4 -0 -0 -1 -0 -0 -0 -0 -0 -2 -0 -17 -81 -78 -112 -107 -80 -126 -69 -36 -8 -0 -0 -1 -0 -0 -1 -0 -1 -12 -8 -5 -0 -0 -5 -3 -49 -0
-0 -1 -0 -0 -0 -1 -5 -6 -7 -2 -7 -32 -7 -8 -8 -2 -19 -67 -150 -136 -118 -105 -106 -73 -38 -72 -81 -141 -74 -10 -29 -12 -8 -19 -25 -30 -30 -25 -17 -0 -0 -0 -0 -0
-0 -0 -1 -0 -3 -7 -8 -10 -3 -29 -34 -19 -35 -24 -31 -88 -93 -113 -118 -125 -169 -133 -82 -92 -101 -90 -113 -56 -145 -80 -37 -111 -108 -110 -128 -27 -0 -0 -0 -0 -0 -0 -0 -0
-0 -10 -33 -122 -59 -35 -0 -8 -32 -25 -22 -38 -26 -25 -55 -75 -80 -80 -81 -108 -73 -66 -95 -122 -139 -192 -200 -179 -150 -23 -92 -24 -0 -0 -0 -0 -0 -0 -0 -0 -0 -0 -0 -0
-24 -34 -5 -34 -0 -2 -25 -48 -56 -55 -11 -6 -0 -20 -38 -41 -59 -76 -85 -88 -113 -123 -112 -119 -157 -241 -199 -93 -0 -0 -0 -0 -0 -0 -0 -0 -0 -0 -0 -0 -0 -0 -0 -0
-22 -14 -19 -22 -11 -26 -31 -39 -46 -37 -14 -0 -0 -0 -19 -29 -41 -69 -102 -140 -116 -107 -100 -118 -130 -116 -79 -0 -0 -0 -0 -0 -0 -0 -0 -0 -0 -0 -0 -0 -0 -0 -0 -0
-116 -43 -8 -1 -9 -22 -10 -30 -32 -20 -7 -2 -0 -0 -7 -20 -25 -26 -58 -81 -89 -71 -59 -86 -98 -39 -0 -0 -0 -0 -0 -0 -0 -0 -0 -0 -0 -0 -0 -0 -0 -0 -0 -0
Wind_Speed
nan nan nan nan nan nan nan nan nan nan nan nan nan nan 16 7 11 16 15 27 30 28 27 26 25 26 26 25 26 30 25 18 10 5 7 10 12 15 16 14 19 16 14 15
nan nan nan nan nan nan nan nan nan nan nan nan 3 nan 16 15 9 13 15 19 13 25 24 25 23 23 25 26 22 21 23 15 7 6 8 8 9 12 13 14 16 24 23 20
nan nan nan nan 21 nan nan nan nan nan nan nan nan nan 6 21 15 13 13 16 17 23 27 26 26 24 25 25 26 22 19 16 12 7 9 12 10 8 6 10 19 23 11 17
nan nan nan nan 14 nan nan nan nan nan nan 12 26 nan 26 17 22 15 16 15 17 20 20 21 30 26 27 25 25 23 23 20 18 17 16 16 13 14 13 10 15 17 8 8
nan nan nan nan nan nan 13 nan nan nan nan 10 18 12 29 nan 15 24 18 17 16 20 19 18 12 27 25 27 25 23 25 22 18 18 16 17 16 15 14 11 10 10 10 6
nan nan nan nan nan nan nan nan nan nan nan nan 35 8 28 nan 10 12 18 21 18 17 17 13 12 18 19 24 25 24 22 22 21 21 18 14 15 11 11 11 11 13 10 9
nan nan nan nan nan nan nan nan 9 5 6 5 20 nan nan nan nan 5 18 22 21 20 21 19 12 14 18 21 22 22 23 22 21 21 23 23 18 15 13 10 10 8 9 5
nan nan nan nan nan 7 nan nan 10 6 8 nan nan 6 19 32 24 9 14 24 25 22 28 19 16 13 16 20 23 22 20 19 20 21 19 17 18 18 11 14 7 8 7 6
nan nan nan nan nan nan nan nan nan 13 nan 14 nan 21 nan 31 27 16 18 27 27 21 12 10 14 16 18 21 24 24 23 21 20 19 15 18 18 12 11 10 7 10 nan nan
nan nan nan nan nan nan nan nan nan nan nan nan nan nan 19 27 27 24 17 24 22 14 10 11 15 16 19 23 24 26 26 26 24 26 22 19 16 16 17 14 11 10 nan 10
nan nan nan nan nan nan nan nan nan nan nan 11 1 27 8 12 19 29 20 15 13 16 11 14 15 18 18 20 25 27 29 30 28 27 26 23 17 17 18 nan nan nan 12 9
nan nan 11 nan nan nan nan nan nan nan nan nan nan nan nan 12 14 23 19 10 16 19 15 15 18 18 22 22 25 26 27 30 33 31 28 27 19 16 nan nan nan nan 15 13
nan nan nan nan nan nan nan nan nan nan nan 33 18 29 29 21 12 6 6 9 13 24 16 20 21 21 23 24 26 27 27 30 35 30 20 27 21 15 18 20 21 21 20 15
nan nan nan nan 7 nan nan nan nan nan nan 30 36 41 11 13 16 14 15 11 16 24 27 21 23 26 26 29 29 28 29 32 31 24 15 10 10 12 14 18 20 19 19 17
nan nan nan nan nan nan nan nan nan nan 28 36 42 nan nan 11 19 15 8 16 16 23 30 28 24 28 29 29 28 28 30 27 25 21 19 16 12 13 11 14 16 17 18 20
nan nan 23 nan nan nan nan nan nan nan nan 29 nan 35 27 40 37 30 21 15 16 26 28 31 30 30 30 28 27 28 26 26 25 24 21 18 16 16 16 17 17 20 23 21
nan nan 16 8 nan nan nan nan nan 1 5 nan 4 30 17 33 33 26 22 22 26 31 33 36 34 36 34 30 32 33 32 31 27 26 22 17 12 12 12 13 15 18 21 24
nan nan 14 14 9 5 nan nan nan nan nan nan 9 nan 23 42 29 21 19 21 26 39 39 40 33 28 36 38 40 39 39 40 35 28 24 22 20 19 18 21 24 26 26 28
nan 8 15 13 42 9 nan 11 9 14 nan nan nan 5 24 47 27 30 28 30 32 40 38 34 35 45 45 47 44 46 48 43 42 38 23 19 22 26 27 29 30 28 30 29
nan nan nan 13 9 3 11 10 nan 15 9 18 11 22 20 39 20 40 35 42 45 44 42 40 44 47 51 48 51 51 56 52 50 40 34 28 27 27 27 31 30 30 nan nan
21 18 9 16 8 10 45 26 26 21 24 28 31 28 25 30 32 46 42 41 41 43 43 41 43 47 49 54 50 39 43 43 23 23 32 32 28 nan nan nan nan nan nan nan
8 17 17 12 16 27 33 24 24 32 31 35 32 35 48 43 41 43 43 44 40 40 41 38 39 40 37 42 42 40 20 22 26 26 nan nan nan nan nan nan nan nan nan nan
21 41 39 44 42 30 22 43 28 34 36 32 39 45 47 46 45 43 43 38 41 36 32 36 41 41 39 38 36 nan nan nan nan nan nan nan nan nan nan nan nan nan nan nan
39 45 40 nan 20 21 34 33 31 30 36 33 42 43 45 47 45 46 43 46 31 27 27 27 33 37 nan nan nan nan nan nan nan nan nan nan nan nan nan nan nan nan nan nan
53 47 51 31 22 29 28 31 29 30 35 38 44 41 45 46 41 36 43 36 27 25 29 34 33 34 nan nan nan nan nan nan nan nan nan nan nan nan nan nan nan nan nan nan
nan 45 40 39 48 35 39 26 28 30 35 36 41 46 43 43 44 44 37 34 37 36 38 37 36 nan nan nan nan nan nan nan nan nan nan nan nan nan nan nan nan nan nan nan
Wind_Direction
nan nan nan nan nan nan nan nan nan nan nan nan nan nan 262 328 11 354 11 345 358 10 356 2 19 26 28 15 15 6 14 28 19 19 335 337 329 309 297 281 249 256 259 243
nan nan nan nan nan nan nan nan nan nan nan nan 312 nan 288 311 349 353 356 337 348 345 4 360 7 16 18 19 15 20 23 20 14 28 46 7 326 341 267 269 280 285 264 253
nan nan nan nan 274 nan nan nan nan nan nan nan nan nan 221 310 308 329 349 358 341 351 360 4 12 17 13 15 18 18 18 12 25 24 355 343 355 11 1 315 333 332 248 234
nan nan nan nan 202 nan nan nan nan nan nan 262 109 nan 67 302 316 312 340 358 356 347 2 14 355 8 13 15 18 18 19 11 10 11 5 8 11 13 9 6 346 10 18 247
nan nan nan nan nan nan 148 nan nan nan nan 55 320 94 317 nan 320 327 7 353 6 339 354 355 5 341 4 6 13 13 17 17 17 6 17 4 19 14 16 17 2 10 11 15
nan nan nan nan nan nan nan nan nan nan nan nan 278 87 235 nan 253 310 355 351 342 338 295 290 321 327 348 353 4 2 360 6 13 12 18 15 357 12 13 352 12 14 7 346
nan nan nan nan nan nan nan nan 74 46 4 49 305 nan nan nan nan 268 349 352 327 309 302 285 300 327 332 346 351 354 344 348 356 6 3 6 358 353 351 2 353 357 15 339
nan nan nan nan nan 228 nan nan 131 288 204 nan nan 282 258 239 264 289 355 337 326 327 302 281 290 300 326 334 335 341 339 335 344 350 352 343 341 342 347 330 330 0 341 321
nan nan nan nan nan nan nan nan nan 167 nan 42 nan 293 nan 292 279 291 350 337 333 333 316 269 284 301 314 324 327 329 330 324 325 324 310 329 333 332 318 321 330 278 nan nan
nan nan nan nan nan nan nan nan nan nan nan nan nan nan 266 286 299 296 327 340 337 341 336 303 296 301 312 321 325 324 326 319 317 307 316 316 318 321 319 333 319 300 nan 294
nan nan nan nan nan nan nan nan nan nan nan 190 39 229 228 253 296 316 321 330 327 334 334 308 304 310 315 319 326 326 323 311 306 309 307 302 301 306 319 nan nan nan 298 299
nan nan 176 nan nan nan nan nan nan nan nan nan nan nan nan 255 282 317 331 317 305 337 329 311 307 315 314 321 323 324 315 317 325 320 300 285 291 287 nan nan nan nan 280 282
nan nan nan nan nan nan nan nan nan nan nan 272 127 263 263 231 280 304 330 3 321 326 309 310 314 315 323 317 321 323 325 333 328 327 311 289 268 284 294 297 291 286 285 277
nan nan nan nan 243 nan nan nan nan nan nan 229 224 219 339 310 310 294 296 318 332 331 314 306 309 312 316 315 319 319 323 324 328 346 318 302 262 269 268 272 284 279 275 284
nan nan nan nan nan nan nan nan nan nan 243 241 237 nan nan 203 275 291 295 265 311 307 299 294 304 310 316 309 312 316 319 311 322 327 310 304 297 301 301 291 292 292 287 286
nan nan 135 nan nan nan nan nan nan nan nan 322 nan 23 280 277 278 283 279 271 270 281 289 294 296 296 312 303 310 315 310 312 318 319 312 309 308 283 284 282 289 288 290 296
nan nan 163 208 nan nan nan nan nan 190 257 nan 167 268 281 286 277 273 278 276 288 287 290 294 298 302 301 302 304 310 307 309 310 311 311 315 311 299 289 287 293 297 299 297
nan nan 165 181 214 234 nan nan nan nan nan nan 240 nan 262 263 272 271 273 284 281 277 273 274 279 284 294 305 307 297 302 308 302 303 311 314 313 307 304 302 298 296 296 300
nan 194 182 193 198 211 nan 259 187 203 nan nan nan 256 274 281 284 273 273 285 286 281 278 279 280 283 285 291 295 298 297 304 295 296 305 287 281 279 281 288 289 291 296 301
nan nan nan 169 237 218 278 333 nan 220 226 232 243 235 242 284 313 285 282 275 280 286 289 281 279 287 286 284 292 292 290 290 266 267 287 280 281 282 285 285 289 293 nan nan
171 177 188 200 216 261 224 227 256 279 247 243 245 251 265 272 270 285 294 296 291 290 295 284 282 286 288 292 301 282 249 276 271 279 287 287 283 nan nan nan nan nan nan nan
165 167 189 198 211 242 255 250 226 246 248 251 253 265 266 277 285 288 295 293 296 301 286 274 278 280 288 286 304 304 291 283 290 293 nan nan nan nan nan nan nan nan nan nan
178 191 210 199 241 202 230 250 248 250 263 265 273 277 281 282 291 293 296 300 299 292 283 283 289 285 280 286 288 nan nan nan nan nan nan nan nan nan nan nan nan nan nan nan
208 208 229 nan 177 226 230 244 258 268 279 288 284 290 291 292 293 296 302 312 301 284 286 294 297 291 nan nan nan nan nan nan nan nan nan nan nan nan nan nan nan nan nan nan
207 200 212 220 247 242 250 254 273 277 279 290 289 292 298 303 303 301 308 316 297 296 294 295 297 298 nan nan nan nan nan nan nan nan nan nan nan nan nan nan nan nan nan nan
nan 218 215 228 234 233 243 252 274 285 286 283 292 296 300 301 304 306 311 313 305 297 296 304 306 nan nan nan nan nan nan nan nan nan nan nan nan nan nan nan nan nan nan nan